User: anonymous   Login
Location: Cheyres
(46.8153°N, 6.7877°E)
Time: 09:41:03
(UTC+00:00)
Language:

KANOPUS-V 1 - Orbit

View from above orbital plane
View from above orbital plane
View from above satellite
View from above satellite

Ground track
Ground track

The orbit data is extracted from the following two-line orbital elements,

1 38707U 12039A   22330.81345233  .00004197  00000-0  17625-3 0  9994
2 38707  97.4722 251.9793 0002103  80.2318   4.8206 15.24005500574101
Epoch (UTC): 26 November 2022 19:31:22
Eccentricity: 0.0002103
inclination: 97.4722°
perigee height: 492 km
apogee height: 495 km
right ascension of ascending node: 251.9793°
argument of perigee: 80.2318°
revolutions per day: 15.24005500
mean anomaly at epoch: 4.8206°
orbit number at epoch: 57410

The dashed part of the orbit path shows where the satellite is in the earth's shadow,  

DLR